| time (UTC) | temp C | wind direction | speed KPH | gust KPH | rain 1hr cm | rain 24hr cm | rain mn cm | humidity % | barometer mb |
| 20260505065529 | 9 | 141 | 0.0 | 1.6 | 0.00 | 0.00 | 0.00 | 43 | 1009.9 |
| 20260505065026 | 10 | 141 | 0.0 | 1.6 | 0.00 | 0.00 | 0.00 | 43 | 1009.8 |
| 20260505064516 | 10 | 141 | 0.0 | 1.6 | 0.00 | 0.00 | 0.00 | 43 | 1009.9 |
| 20260505064229 | 10 | 141 | 0.0 | 3.2 | 0.00 | 0.00 | 0.00 | 43 | 1009.9 |
| 20260505063513 | 10 | 141 | 0.0 | 3.2 | 0.00 | 0.00 | 0.00 | 43 | 1010.0 |
| 20260505063013 | 10 | 200 | 0.0 | 0.0 | 0.00 | 0.00 | 0.00 | 43 | 1010.0 |
| 20260505062512 | 10 | 200 | 0.0 | 0.0 | 0.00 | 0.00 | 0.00 | 42 | 1010.0 |
| 20260505061952 | 10 | 200 | 0.0 | 4.8 | 0.00 | 0.00 | 0.00 | 42 | 1010.1 |
| 20260505061452 | 10 | 200 | 0.0 | 4.8 | 0.00 | 0.00 | 0.00 | 42 | 1010.1 |
| 20260505060939 | 10 | 173 | 0.0 | 9.7 | 0.00 | 0.00 | 0.00 | 42 | 1010.1 |
| 20260505060440 | 10 | 238 | 1.6 | 9.7 | 0.00 | 0.00 | 0.00 | 42 | 1010.2 |
| 20260505055931 | 10 | 245 | 1.6 | 6.4 | 0.00 | 0.00 | 0.00 | 42 | 1010.1 |
| 20260505055431 | 10 | 248 | 0.0 | 6.4 | 0.00 | 0.00 | 0.00 | 42 | 1010.0 |
| 20260505054901 | 10 | 184 | 1.6 | 9.7 | 0.00 | 0.00 | 0.00 | 42 | 1010.0 |
| 20260505054356 | 10 | 227 | 1.6 | 9.7 | 0.00 | 0.00 | 0.00 | 42 | 1010.1 |
| 20260505053849 | 10 | 211 | 0.0 | 9.7 | 0.00 | 0.00 | 0.00 | 42 | 1010.1 |
| 20260505053342 | 10 | 175 | 0.0 | 3.2 | 0.00 | 0.00 | 0.00 | 42 | 1010.1 |
| 20260505052835 | 10 | 171 | 0.0 | 6.4 | 0.00 | 0.00 | 0.00 | 42 | 1010.1 |
| 20260505052326 | 10 | 194 | 0.0 | 6.4 | 0.00 | 0.00 | 0.00 | 42 | 1010.1 |
| 20260505052042 | 10 | 196 | 0.0 | 6.4 | 0.00 | 0.00 | 0.00 | 42 | 1010.2 |
| 20260505051314 | 11 | 182 | 0.0 | 6.4 | 0.00 | 0.00 | 0.00 | 42 | 1010.1 |
| 20260505051017 | 11 | 205 | 1.6 | 8.0 | 0.00 | 0.00 | 0.00 | 41 | 1010.2 |
| 20260505050858 | 11 | 190 | 1.6 | 6.4 | 0.00 | 0.00 | 0.00 | 41 | 1010.1 |
| 20260505041714 | 11 | 163 | 0.0 | 6.4 | 0.00 | 0.00 | 0.00 | 41 | 1010.3 |
| 20260505041202 | 11 | 140 | 1.6 | 6.4 | 0.00 | 0.00 | 0.00 | 41 | 1010.3 |
| 20260505040655 | 11 | 229 | 1.6 | 8.0 | 0.00 | 0.00 | 0.00 | 41 | 1010.4 |
| 20260505040637 | 12 | 254 | 1.6 | 9.7 | 0.00 | 0.00 | 0.00 | 41 | 1010.4 |
| 20260505035650 | 12 | 117 | 1.6 | 9.7 | 0.00 | 0.00 | 0.00 | 40 | 1010.3 |
| 20260505035139 | 12 | 119 | 0.0 | 8.0 | 0.00 | 0.00 | 0.00 | 40 | 1010.3 |
| 20260505034638 | 12 | 177 | 0.0 | 6.4 | 0.00 | 0.00 | 0.00 | 40 | 1010.3 |
| 20260505034136 | 12 | 188 | 0.0 | 6.4 | 0.00 | 0.00 | 0.00 | 40 | 1010.3 |
| 20260505033630 | 12 | 217 | 1.6 | 11.3 | 0.00 | 0.00 | 0.00 | 40 | 1010.2 |
| 20260505033123 | 12 | 202 | 1.6 | 11.3 | 0.00 | 0.00 | 0.00 | 40 | 1010.1 |
| 20260505032618 | 12 | 204 | 1.6 | 8.0 | 0.00 | 0.00 | 0.00 | 40 | 1010.1 |
| 20260505032102 | 12 | 210 | 1.6 | 8.0 | 0.00 | 0.00 | 0.00 | 40 | 1010.1 |
| 20260505031556 | 12 | 204 | 3.2 | 12.9 | 0.00 | 0.00 | 0.00 | 40 | 1010.2 |
| 20260505031312 | 12 | 223 | 1.6 | 12.9 | 0.00 | 0.00 | 0.00 | 40 | 1010.2 |
| 20260505030542 | 12 | 212 | 0.0 | 6.4 | 0.00 | 0.00 | 0.00 | 40 | 1010.2 |
| 20260505030042 | 12 | 237 | 1.6 | 6.4 | 0.00 | 0.00 | 0.00 | 40 | 1010.2 |
| 20260505025542 | 12 | 217 | 0.0 | 6.4 | 0.00 | 0.00 | 0.00 | 40 | 1010.1 |
| 20260505025036 | 12 | 155 | 1.6 | 8.0 | 0.00 | 0.00 | 0.00 | 40 | 1010.2 |
| 20260505024517 | 12 | 229 | 1.6 | 8.0 | 0.00 | 0.00 | 0.00 | 39 | 1010.2 |
| 20260505024011 | 12 | 219 | 1.6 | 8.0 | 0.00 | 0.00 | 0.00 | 39 | 1010.2 |
| 20260505023506 | 12 | 126 | 1.6 | 9.7 | 0.00 | 0.00 | 0.00 | 39 | 1010.3 |
| 20260505023000 | 12 | 211 | 1.6 | 8.0 | 0.00 | 0.00 | 0.00 | 39 | 1010.3 |
| 20260505022456 | 12 | 202 | 1.6 | 4.8 | 0.00 | 0.00 | 0.00 | 39 | 1010.4 |
| 20260505021948 | 12 | 196 | 1.6 | 9.7 | 0.00 | 0.00 | 0.00 | 39 | 1010.3 |
| 20260505021442 | 13 | 165 | 3.2 | 9.7 | 0.00 | 0.00 | 0.00 | 39 | 1010.4 |
| 20260505021158 | 13 | 233 | 1.6 | 9.7 | 0.00 | 0.00 | 0.00 | 39 | 1010.4 |
| 20260505020431 | 13 | 251 | 3.2 | 11.3 | 0.00 | 0.00 | 0.00 | 39 | 1010.4 |
| 20260505015927 | 13 | 224 | 3.2 | 11.3 | 0.00 | 0.00 | 0.00 | 39 | 1010.4 |
| 20260505015426 | 13 | 202 | 1.6 | 9.7 | 0.00 | 0.00 | 0.00 | 39 | 1010.4 |
| 20260505014927 | 13 | 206 | 1.6 | 9.7 | 0.00 | 0.00 | 0.00 | 39 | 1010.3 |
| 20260505014426 | 13 | 234 | 3.2 | 9.7 | 0.00 | 0.00 | 0.00 | 39 | 1010.3 |
| 20260505013921 | 13 | 217 | 3.2 | 17.7 | 0.00 | 0.00 | 0.00 | 39 | 1010.4 |
| 20260505013412 | 13 | 304 | 4.8 | 17.7 | 0.00 | 0.00 | 0.00 | 39 | 1010.3 |
| 20260505012910 | 13 | 184 | 4.8 | 19.3 | 0.00 | 0.00 | 0.00 | 38 | 1010.3 |
| 20260505012409 | 13 | 237 | 3.2 | 19.3 | 0.00 | 0.00 | 0.00 | 38 | 1010.1 |
| 20260505011909 | 13 | 219 | 3.2 | 9.7 | 0.00 | 0.00 | 0.00 | 38 | 1010.1 |
| 20260505011410 | 13 | 192 | 1.6 | 16.1 | 0.00 | 0.00 | 0.00 | 38 | 1010.0 |
| 20260505011348 | 14 | 271 | 1.6 | 16.1 | 0.00 | 0.00 | 0.00 | 38 | 1010.0 |
| 20260505010404 | 14 | 212 | 4.8 | 11.3 | 0.00 | 0.00 | 0.00 | 38 | 1009.8 |
| 20260505005905 | 14 | 209 | 3.2 | 11.3 | 0.00 | 0.00 | 0.00 | 38 | 1009.8 |
| 20260505005404 | 14 | 188 | 3.2 | 11.3 | 0.00 | 0.00 | 0.00 | 38 | 1009.7 |
| 20260505004903 | 15 | 234 | 4.8 | 17.7 | 0.00 | 0.00 | 0.00 | 38 | 1009.5 |
| 20260505004404 | 15 | 196 | 4.8 | 17.7 | 0.00 | 0.00 | 0.00 | 38 | 1009.5 |
| 20260505003901 | 15 | 204 | 3.2 | 11.3 | 0.00 | 0.00 | 0.00 | 38 | 1009.3 |
| 20260505003400 | 15 | 244 | 3.2 | 11.3 | 0.00 | 0.00 | 0.00 | 38 | 1009.3 |
| 20260505002902 | 15 | 198 | 3.2 | 19.3 | 0.00 | 0.00 | 0.00 | 38 | 1009.1 |
| 20260505002358 | 15 | 208 | 4.8 | 20.9 | 0.00 | 0.00 | 0.00 | 38 | 1009.1 |
| 20260505001858 | 15 | 164 | 6.4 | 22.5 | 0.00 | 0.00 | 0.00 | 38 | 1008.9 |
| 20260505001358 | 15 | 186 | 6.4 | 22.5 | 0.00 | 0.00 | 0.00 | 38 | 1008.8 |
| 20260505001122 | 15 | 259 | 6.4 | 27.4 | 0.00 | 0.00 | 0.00 | 38 | 1008.7 |
| 20260505000355 | 15 | 263 | 8.0 | 27.4 | 0.00 | 0.00 | 0.00 | 39 | 1008.5 |
| 20260504235855 | 15 | 206 | 4.8 | 19.3 | 0.00 | 0.00 | 0.00 | 38 | 1008.6 |
| 20260504235356 | 16 | 213 | 3.2 | 14.5 | 0.00 | 0.00 | 0.00 | 38 | 1008.6 |
| 20260504234856 | 16 | 203 | 4.8 | 14.5 | 0.00 | 0.00 | 0.00 | 38 | 1008.5 |
| 20260504234353 | 16 | 222 | 4.8 | 22.5 | 0.00 | 0.00 | 0.00 | 38 | 1008.4 |
| 20260504233851 | 16 | 286 | 6.4 | 22.5 | 0.00 | 0.00 | 0.00 | 38 | 1008.3 |
| 20260504233351 | 16 | 317 | 8.0 | 24.1 | 0.00 | 0.00 | 0.00 | 38 | 1008.2 |
| 20260504232849 | 17 | 151 | 8.0 | 24.1 | 0.00 | 0.00 | 0.00 | 37 | 1008.1 |
| 20260504232609 | 17 | 211 | 6.4 | 22.5 | 0.00 | 0.00 | 0.00 | 37 | 1008.0 |
| 20260504231849 | 17 | 240 | 6.4 | 22.5 | 0.00 | 0.00 | 0.00 | 38 | 1007.9 |
| 20260504231611 | 17 | 216 | 6.4 | 25.7 | 0.00 | 0.00 | 0.00 | 37 | 1007.9 |
| 20260504230849 | 17 | 219 | 6.4 | 25.7 | 0.00 | 0.00 | 0.00 | 37 | 1008.0 |
| 20260504230346 | 18 | 198 | 6.4 | 22.5 | 0.00 | 0.00 | 0.00 | 37 | 1007.8 |
| 20260504225846 | 18 | 223 | 6.4 | 22.5 | 0.00 | 0.00 | 0.00 | 37 | 1007.8 |
| 20260504225347 | 18 | 175 | 6.4 | 33.8 | 0.00 | 0.00 | 0.00 | 37 | 1007.7 |
| 20260504224848 | 18 | 214 | 8.0 | 33.8 | 0.00 | 0.00 | 0.00 | 37 | 1007.7 |
| 20260504224346 | 18 | 215 | 8.0 | 24.1 | 0.00 | 0.00 | 0.00 | 37 | 1007.7 |
| 20260504223846 | 18 | 229 | 6.4 | 22.5 | 0.00 | 0.00 | 0.00 | 37 | 1007.7 |
| 20260504223346 | 18 | 158 | 8.0 | 25.7 | 0.00 | 0.00 | 0.00 | 37 | 1007.4 |
| 20260504223119 | 19 | 212 | 8.0 | 25.7 | 0.00 | 0.00 | 0.00 | 37 | 1007.3 |
| 20260504222338 | 19 | 233 | 8.0 | 22.5 | 0.00 | 0.00 | 0.00 | 37 | 1007.3 |
| 20260504221832 | 20 | 151 | 6.4 | 19.3 | 0.00 | 0.00 | 0.00 | 37 | 1007.3 |
| 20260504221327 | 20 | 268 | 6.4 | 19.3 | 0.00 | 0.00 | 0.00 | 36 | 1007.4 |
| 20260504220820 | 20 | 30 | 6.4 | 19.3 | 0.00 | 0.00 | 0.00 | 36 | 1007.2 |
| 20260504220315 | 20 | 190 | 4.8 | 16.1 | 0.00 | 0.00 | 0.00 | 36 | 1007.2 |
| 20260504215809 | 20 | 261 | 6.4 | 22.5 | 0.00 | 0.00 | 0.00 | 36 | 1007.3 |
| 20260504215750 | 20 | 301 | 8.0 | 24.1 | 0.00 | 0.00 | 0.00 | 36 | 1007.3 |
| 20260504214757 | 20 | 209 | 6.4 | 20.9 | 0.00 | 0.00 | 0.00 | 36 | 1007.3 |
| 20260504214251 | 20 | 257 | 4.8 | 16.1 | 0.00 | 0.00 | 0.00 | 35 | 1007.3 |
| 20260504213745 | 20 | 0 | 6.4 | 19.3 | 0.00 | 0.00 | 0.00 | 35 | 1007.3 |
| 20260504213239 | 20 | 170 | 8.0 | 24.1 | 0.00 | 0.00 | 0.00 | 35 | 1007.3 |
| 20260504212733 | 21 | 200 | 9.7 | 29.0 | 0.00 | 0.00 | 0.00 | 35 | 1007.1 |
| 20260504212227 | 21 | 202 | 9.7 | 25.7 | 0.00 | 0.00 | 0.00 | 35 | 1007.3 |
| 20260504211721 | 21 | 244 | 8.0 | 24.1 | 0.00 | 0.00 | 0.00 | 35 | 1006.9 |
| 20260504211215 | 21 | 240 | 8.0 | 25.7 | 0.00 | 0.00 | 0.00 | 34 | 1006.9 |
| 20260504210709 | 21 | 209 | 8.0 | 25.7 | 0.00 | 0.00 | 0.00 | 34 | 1006.9 |
| 20260504210203 | 21 | 205 | 6.4 | 19.3 | 0.00 | 0.00 | 0.00 | 34 | 1006.9 |
| 20260504205657 | 21 | 230 | 6.4 | 25.7 | 0.00 | 0.00 | 0.00 | 34 | 1006.9 |
| 20260504205151 | 21 | 344 | 8.0 | 25.7 | 0.00 | 0.00 | 0.00 | 34 | 1006.9 |
| 20260504204645 | 21 | 225 | 8.0 | 22.5 | 0.00 | 0.00 | 0.00 | 33 | 1006.9 |
| 20260504204138 | 22 | 252 | 6.4 | 30.6 | 0.00 | 0.00 | 0.00 | 33 | 1007.0 |
| 20260504203633 | 22 | 208 | 6.4 | 30.6 | 0.00 | 0.00 | 0.00 | 35 | 1006.9 |
| 20260504203127 | 22 | 90 | 4.8 | 17.7 | 0.00 | 0.00 | 0.00 | 34 | 1006.9 |
| 20260504202628 | 21 | 187 | 4.8 | 17.7 | 0.00 | 0.00 | 0.00 | 35 | 1007.0 |
| 20260504202347 | 21 | 253 | 8.0 | 20.9 | 0.00 | 0.00 | 0.00 | 35 | 1006.9 |
| 20260504201627 | 21 | 159 | 8.0 | 22.5 | 0.00 | 0.00 | 0.00 | 35 | 1007.0 |
| 20260504201125 | 21 | 190 | 6.4 | 22.5 | 0.00 | 0.00 | 0.00 | 34 | 1007.1 |
| 20260504200624 | 21 | 207 | 4.8 | 19.3 | 0.00 | 0.00 | 0.00 | 34 | 1007.1 |
| 20260504200123 | 21 | 279 | 6.4 | 19.3 | 0.00 | 0.00 | 0.00 | 34 | 1007.1 |
| 20260504195854 | 21 | 233 | 6.4 | 27.4 | 0.00 | 0.00 | 0.00 | 34 | 1007.1 |
| 20260504195120 | 21 | 190 | 6.4 | 27.4 | 0.00 | 0.00 | 0.00 | 34 | 1007.0 |
| 20260504194845 | 21 | 268 | 6.4 | 19.3 | 0.00 | 0.00 | 0.00 | 35 | 1007.1 |
| 20260504194121 | 21 | 241 | 8.0 | 27.4 | 0.00 | 0.00 | 0.00 | 34 | 1007.0 |
| 20260504193620 | 21 | 210 | 8.0 | 27.4 | 0.00 | 0.00 | 0.00 | 34 | 1007.1 |
| 20260504193120 | 21 | 207 | 4.8 | 19.3 | 0.00 | 0.00 | 0.00 | 34 | 1007.1 |
| 20260504192620 | 21 | 64 | 6.4 | 19.3 | 0.00 | 0.00 | 0.00 | 33 | 1007.0 |
| 20260504192120 | 21 | 188 | 6.4 | 19.3 | 0.00 | 0.00 | 0.00 | 34 | 1007.1 |
| 20260504191620 | 21 | 184 | 6.4 | 17.7 | 0.00 | 0.00 | 0.00 | 34 | 1007.0 |
| 20260504191346 | 21 | 195 | 6.4 | 19.3 | 0.00 | 0.00 | 0.00 | 33 | 1007.0 |
| 20260504190616 | 21 | 281 | 8.0 | 25.7 | 0.00 | 0.00 | 0.00 | 34 | 1007.1 |
| 20260504190116 | 21 | 237 | 6.4 | 25.7 | 0.00 | 0.00 | 0.00 | 35 | 1007.3 |
| 20260504185615 | 21 | 246 | 6.4 | 19.3 | 0.00 | 0.00 | 0.00 | 34 | 1007.3 |
| 20260504185117 | 21 | 333 | 6.4 | 19.3 | 0.00 | 0.00 | 0.00 | 34 | 1007.3 |
| 20260504184613 | 21 | 197 | 6.4 | 22.5 | 0.00 | 0.00 | 0.00 | 34 | 1007.5 |
| 20260504184333 | 21 | 338 | 8.0 | 27.4 | 0.00 | 0.00 | 0.00 | 35 | 1007.3 |
| 20260504183613 | 21 | 256 | 8.0 | 27.4 | 0.00 | 0.00 | 0.00 | 36 | 1007.6 |
| 20260504183110 | 21 | 225 | 6.4 | 24.1 | 0.00 | 0.00 | 0.00 | 35 | 1007.5 |
| 20260504182836 | 21 | 188 | 6.4 | 24.1 | 0.00 | 0.00 | 0.00 | 36 | 1007.4 |
| 20260504182109 | 21 | 136 | 8.0 | 37.0 | 0.00 | 0.00 | 0.00 | 36 | 1007.5 |
| 20260504181600 | 20 | 166 | 9.7 | 37.0 | 0.00 | 0.00 | 0.00 | 35 | 1007.7 |
| 20260504181101 | 20 | 149 | 8.0 | 25.7 | 0.00 | 0.00 | 0.00 | 35 | 1007.8 |
| 20260504180601 | 20 | 300 | 8.0 | 29.0 | 0.00 | 0.00 | 0.00 | 36 | 1007.9 |
| 20260504180059 | 20 | 213 | 9.7 | 29.0 | 0.00 | 0.00 | 0.00 | 35 | 1008.0 |
| 20260504175557 | 20 | 229 | 8.0 | 25.7 | 0.00 | 0.00 | 0.00 | 35 | 1008.0 |
| 20260504175057 | 20 | 213 | 8.0 | 29.0 | 0.00 | 0.00 | 0.00 | 35 | 1008.1 |
| 20260504174557 | 20 | 214 | 8.0 | 30.6 | 0.00 | 0.00 | 0.00 | 36 | 1008.0 |
| 20260504174056 | 20 | 198 | 8.0 | 30.6 | 0.00 | 0.00 | 0.00 | 35 | 1008.0 |
| 20260504173558 | 20 | 130 | 9.7 | 24.1 | 0.00 | 0.00 | 0.00 | 35 | 1008.1 |
| 20260504173318 | 20 | 196 | 8.0 | 24.1 | 0.00 | 0.00 | 0.00 | 36 | 1008.0 |
| 20260504172555 | 20 | 219 | 6.4 | 22.5 | 0.00 | 0.00 | 0.00 | 36 | 1008.1 |
| 20260504172053 | 20 | 258 | 8.0 | 24.1 | 0.00 | 0.00 | 0.00 | 37 | 1008.1 |
| 20260504171814 | 20 | 163 | 9.7 | 24.1 | 0.00 | 0.00 | 0.00 | 37 | 1008.1 |
| 20260504171053 | 20 | 293 | 8.0 | 24.1 | 0.00 | 0.00 | 0.00 | 37 | 1008.2 |
| 20260504170552 | 20 | 198 | 8.0 | 25.7 | 0.00 | 0.00 | 0.00 | 36 | 1008.0 |
| 20260504160444 | 20 | 238 | 9.7 | 24.1 | 0.00 | 0.00 | 0.00 | 38 | 1009.1 |
| 20260504150838 | 19 | 344 | 6.4 | 22.5 | 0.00 | 0.00 | 0.00 | 40 | 1009.8 |
| 20260504150333 | 19 | 244 | 8.0 | 24.1 | 0.00 | 0.00 | 0.00 | 40 | 1009.8 |
| 20260504141253 | 17 | 281 | 6.4 | 22.5 | 0.00 | 0.00 | 0.00 | 42 | 1010.3 |
| 20260504140754 | 17 | 181 | 6.4 | 19.3 | 0.00 | 0.00 | 0.00 | 41 | 1010.3 |
| 20260504140253 | 16 | 235 | 4.8 | 16.1 | 0.00 | 0.00 | 0.00 | 43 | 1010.3 |
| 20260504130721 | 13 | 184 | 3.2 | 14.5 | 0.00 | 0.00 | 0.00 | 44 | 1010.9 |
| 20260504130220 | 13 | 207 | 3.2 | 12.9 | 0.00 | 0.00 | 0.00 | 44 | 1010.9 |
| 20260504120141 | 10 | 244 | 1.6 | 8.0 | 0.00 | 0.00 | 0.00 | 44 | 1011.3 |
| 20260504120125 | 9 | 275 | 1.6 | 8.0 | 0.00 | 0.00 | 0.00 | 44 | 1011.2 |
| 20260504100508 | 5 | 158 | 1.6 | 8.0 | 0.00 | 0.00 | 0.00 | 44 | 1010.8 |
| 20260504081956 | 6 | 225 | 0.0 | 3.2 | 0.00 | 0.00 | 0.00 | 43 | 1010.5 |
| 20260504081218 | 6 | 161 | 0.0 | 1.6 | 0.00 | 0.00 | 0.00 | 43 | 1010.5 |
| 20260504080719 | 6 | 161 | 0.0 | 1.6 | 0.00 | 0.00 | 0.00 | 43 | 1010.5 |
| 20260504080219 | 6 | 196 | 0.0 | 4.8 | 0.00 | 0.00 | 0.00 | 43 | 1010.4 |
| 20260504070121 | 6 | 194 | 1.6 | 4.8 | 0.00 | 0.00 | 0.00 | 43 | 1010.2 |